Location: Columbia
(38.9520°N, 92.3340°W)
Time: 18:08:19
(UTC-05:00)

Iridium 22 - Visible Passes

Search period start: 30 June 2016 00:00
Search period end: 10 July 2016 00:00
Orbit: 776 x 779 km, 86.4° (Epoch: 30 June)

Date Brightness Start Highest point End Pass type
(mag) Time Alt. Az. Time Alt. Az. Time Alt. Az.
30 Jun 8.1 22:23:36 10° NW 22:26:48 17° W 22:29:58 10° WSW visible
01 Jul 7.4 21:49:02 10° NNW 21:53:33 30° W 21:58:03 10° SW visible
02 Jul 6.3 21:15:05 10° N 21:20:12 57° W 21:25:17 10° SSW visible
03 Jul 8.5 22:25:17 10° WNW 22:26:39 11° WNW 22:28:02 10° W visible
04 Jul 8.0 21:49:40 10° NNW 21:53:30 21° W 21:57:19 10° SW visible
05 Jul 7.1 21:15:24 10° NNW 21:20:12 39° W 21:25:00 10° SSW visible
07 Jul 8.3 21:50:39 10° NW 21:53:23 14° WNW 21:56:07 10° WSW visible
08 Jul 7.8 21:15:52 10° NNW 21:20:10 27° W 21:24:29 10° SW visible
